Location: Newark
(44.1667°N, 8.2500°E)
Time: 15:28:50
(UTC+00:00)

S-56A Canister/Altair - Pass Details

Date: 13 December 2019
Orbit: 634 x 2498 km, 38.9° (Epoch: 19 January)

Event Time Altitude Azimuth Distance (km) Brightness Sun altitude
Rises 12:23:26 0° 273° (W) 6,041 12.3 21.2°
Reaches altitude 10° 12:27:18 10° 271° (W) 5,117 12.0 21.0°
Maximum altitude 12:42:15 66° 195° (SSW) 2,566 11.0 20.2°
Drops below altitude 10° 12:55:02 10° 117° (ESE) 4,442 11.5 19.3°
Sets 12:58:08 0° 114° (ESE) 5,230 11.8 19.1°
